Location: Unspecified
(0.0000°N, 0.0000°E)
Time: 18:15:57
(UTC+00:00)

Envisat - Pass Details

Date: 26 July 2017
Orbit: 764 x 766 km, 98.2° (Epoch: 23 September)

Event Time Altitude Azimuth Distance (km) Brightness Sun altitude
Exits shadow 20:15:09 25° 7° (N) 1,495 4.6 -30.2°
Drops below altitude 10° 20:17:18 10° 359° (N) 2,293 5.7 -30.6°
Sets 20:19:37 0° 355° (N) 3,216 6.6 -31.2°
